| time (UTC) | temp F | wind direction | speed knots | gust knots | rain 1hr in | rain 24hr in | rain mn in | humidity % | barometer mb |
| 20260505214512 | 78 | 200 | 4.3 | 8.7 | 0.00 | 0.00 | 0.00 | 40 | 1009.0 |
| 20260505214030 | 78 | 215 | 3.5 | 11.3 | 0.00 | 0.00 | 0.00 | 41 | 1009.1 |
| 20260505213503 | 78 | 222 | 6.1 | 11.3 | 0.00 | 0.00 | 0.00 | 40 | 1009.1 |
| 20260505213136 | 78 | 202 | 5.2 | 11.3 | 0.00 | 0.00 | 0.00 | 41 | 1008.9 |
| 20260505212606 | 78 | 206 | 4.3 | 10.4 | 0.00 | 0.00 | 0.00 | 40 | 1008.8 |
| 20260505212018 | 78 | 198 | 6.1 | 9.6 | 0.00 | 0.00 | 0.00 | 40 | 1008.9 |
| 20260505211554 | 78 | 184 | 3.5 | 8.7 | 0.00 | 0.00 | 0.00 | 41 | 1008.7 |
| 20260505211032 | 78 | 209 | 5.2 | 9.6 | 0.00 | 0.00 | 0.00 | 41 | 1008.9 |
| 20260505210504 | 78 | 188 | 3.5 | 8.7 | 0.00 | 0.00 | 0.00 | 41 | 1008.9 |
| 20260505210024 | 79 | 254 | 4.3 | 11.3 | 0.00 | 0.00 | 0.00 | 41 | 1008.9 |
| 20260505205544 | 78 | 232 | 5.2 | 11.3 | 0.00 | 0.00 | 0.00 | 40 | 1008.9 |
| 20260505205007 | 78 | 198 | 6.1 | 13.0 | 0.00 | 0.00 | 0.00 | 39 | 1009.0 |
| 20260505204609 | 78 | 193 | 5.2 | 13.0 | 0.00 | 0.00 | 0.00 | 40 | 1008.9 |
| 20260505204011 | 79 | 175 | 4.3 | 10.4 | 0.00 | 0.00 | 0.00 | 39 | 1009.0 |
| 20260505203529 | 79 | 207 | 2.6 | 8.7 | 0.00 | 0.00 | 0.00 | 41 | 1009.0 |
| 20260505203004 | 79 | 225 | 3.5 | 8.7 | 0.00 | 0.00 | 0.00 | 40 | 1009.0 |
| 20260505202524 | 79 | 202 | 3.5 | 11.3 | 0.00 | 0.00 | 0.00 | 41 | 1009.0 |
| 20260505202109 | 79 | 204 | 5.2 | 11.3 | 0.00 | 0.00 | 0.00 | 38 | 1009.0 |
| 20260505201523 | 79 | 207 | 6.1 | 10.4 | 0.00 | 0.00 | 0.00 | 40 | 1009.0 |
| 20260505201037 | 79 | 271 | 5.2 | 11.3 | 0.00 | 0.00 | 0.00 | 39 | 1009.1 |
| 20260505200559 | 79 | 211 | 5.2 | 11.3 | 0.00 | 0.00 | 0.00 | 39 | 1009.0 |
| 20260505200008 | 79 | 213 | 3.5 | 8.7 | 0.00 | 0.00 | 0.00 | 40 | 1008.9 |
| 20260505195527 | 79 | 198 | 6.1 | 9.6 | 0.00 | 0.00 | 0.00 | 38 | 1009.0 |
| 20260505195048 | 80 | 165 | 3.5 | 10.4 | 0.00 | 0.00 | 0.00 | 40 | 1009.1 |
| 20260505194609 | 80 | 205 | 5.2 | 10.4 | 0.00 | 0.00 | 0.00 | 39 | 1009.2 |
| 20260505194044 | 79 | 180 | 5.2 | 10.4 | 0.00 | 0.00 | 0.00 | 38 | 1009.2 |
| 20260505193602 | 80 | 186 | 5.2 | 11.3 | 0.00 | 0.00 | 0.00 | 37 | 1009.2 |
| 20260505193037 | 80 | 242 | 4.3 | 8.7 | 0.00 | 0.00 | 0.00 | 38 | 1009.0 |
| 20260505192556 | 80 | 205 | 5.2 | 15.6 | 0.00 | 0.00 | 0.00 | 37 | 1009.4 |
| 20260505192007 | 80 | 175 | 7.0 | 15.6 | 0.00 | 0.00 | 0.00 | 36 | 1009.1 |
| 20260505191547 | 80 | 244 | 6.1 | 10.4 | 0.00 | 0.00 | 0.00 | 37 | 1009.1 |
| 20260505191109 | 80 | 196 | 5.2 | 9.6 | 0.00 | 0.00 | 0.00 | 36 | 1009.3 |
| 20260505190653 | 80 | 186 | 4.3 | 11.3 | 0.00 | 0.00 | 0.00 | 36 | 1009.3 |
| 20260505190105 | 80 | 189 | 5.2 | 12.2 | 0.00 | 0.00 | 0.00 | 40 | 1009.6 |
| 20260505185537 | 80 | 246 | 5.2 | 10.4 | 0.00 | 0.00 | 0.00 | 39 | 1009.5 |
| 20260505185058 | 80 | 199 | 5.2 | 11.3 | 0.00 | 0.00 | 0.00 | 38 | 1009.7 |
| 20260505184514 | 80 | 196 | 5.2 | 11.3 | 0.00 | 0.00 | 0.00 | 39 | 1009.8 |
| 20260505184054 | 80 | 237 | 7.0 | 11.3 | 0.00 | 0.00 | 0.00 | 39 | 1009.9 |
| 20260505183525 | 80 | 179 | 5.2 | 13.0 | 0.00 | 0.00 | 0.00 | 41 | 1009.8 |
| 20260505183048 | 80 | 202 | 4.3 | 13.0 | 0.00 | 0.00 | 0.00 | 39 | 1009.8 |
| 20260505182518 | 80 | 209 | 7.0 | 15.6 | 0.00 | 0.00 | 0.00 | 40 | 1009.8 |
| 20260505182051 | 80 | 200 | 4.3 | 10.4 | 0.00 | 0.00 | 0.00 | 40 | 1009.9 |
| 20260505181520 | 80 | 194 | 5.2 | 10.4 | 0.00 | 0.00 | 0.00 | 39 | 1009.9 |
| 20260505181151 | 80 | 148 | 5.2 | 10.4 | 0.00 | 0.00 | 0.00 | 40 | 1010.0 |
| 20260505180504 | 80 | 169 | 4.3 | 18.2 | 0.00 | 0.00 | 0.00 | 41 | 1010.0 |
| 20260505180051 | 80 | 206 | 8.7 | 18.2 | 0.00 | 0.00 | 0.00 | 40 | 1010.1 |
| 20260505175501 | 80 | 190 | 5.2 | 15.6 | 0.00 | 0.00 | 0.00 | 40 | 1010.2 |
| 20260505175033 | 81 | 202 | 6.1 | 12.2 | 0.00 | 0.00 | 0.00 | 41 | 1010.1 |
| 20260505174612 | 81 | 167 | 3.5 | 7.8 | 0.00 | 0.00 | 0.00 | 43 | 1010.2 |
| 20260505174013 | 80 | 227 | 4.3 | 11.3 | 0.00 | 0.00 | 0.00 | 44 | 1010.2 |
| 20260505173558 | 80 | 227 | 6.1 | 11.3 | 0.00 | 0.00 | 0.00 | 43 | 1010.2 |
| 20260505173037 | 80 | 201 | 6.1 | 11.3 | 0.00 | 0.00 | 0.00 | 43 | 1010.3 |
| 20260505172511 | 80 | 197 | 4.3 | 9.6 | 0.00 | 0.00 | 0.00 | 44 | 1010.3 |
| 20260505172039 | 80 | 200 | 6.1 | 9.6 | 0.00 | 0.00 | 0.00 | 45 | 1010.4 |
| 20260505171602 | 79 | 178 | 4.3 | 10.4 | 0.00 | 0.00 | 0.00 | 46 | 1010.3 |
| 20260505171047 | 79 | 196 | 6.1 | 10.4 | 0.00 | 0.00 | 0.00 | 46 | 1010.4 |
| 20260505170517 | 80 | 193 | 4.3 | 7.8 | 0.00 | 0.00 | 0.00 | 48 | 1010.6 |
| 20260505170139 | 80 | 200 | 3.5 | 7.8 | 0.00 | 0.00 | 0.00 | 46 | 1010.5 |
| 20260505165518 | 80 | 192 | 2.6 | 8.7 | 0.00 | 0.00 | 0.00 | 48 | 1010.4 |
| 20260505165045 | 80 | 188 | 4.3 | 8.7 | 0.00 | 0.00 | 0.00 | 48 | 1010.6 |
| 20260505164523 | 80 | 169 | 4.3 | 7.0 | 0.00 | 0.00 | 0.00 | 46 | 1010.6 |
| 20260505164016 | 80 | 200 | 2.6 | 6.1 | 0.00 | 0.00 | 0.00 | 47 | 1010.6 |
| 20260505163535 | 80 | 198 | 2.6 | 7.0 | 0.00 | 0.00 | 0.00 | 46 | 1010.5 |
| 20260505163030 | 79 | 228 | 3.5 | 7.0 | 0.00 | 0.00 | 0.00 | 48 | 1010.6 |
| 20260505162514 | 79 | 208 | 3.5 | 9.6 | 0.00 | 0.00 | 0.00 | 48 | 1010.8 |
| 20260505162058 | 79 | 209 | 5.2 | 9.6 | 0.00 | 0.00 | 0.00 | 47 | 1010.7 |
| 20260505161519 | 79 | 220 | 3.5 | 7.8 | 0.00 | 0.00 | 0.00 | 48 | 1010.7 |
| 20260505161010 | 78 | 140 | 4.3 | 7.8 | 0.00 | 0.00 | 0.00 | 48 | 1010.7 |
| 20260505160505 | 78 | 196 | 3.5 | 7.0 | 0.00 | 0.00 | 0.00 | 50 | 1010.8 |
| 20260505153059 | 77 | 197 | 2.6 | 6.1 | 0.00 | 0.00 | 0.00 | 51 | 1011.4 |
| 20260505152535 | 76 | 204 | 2.6 | 6.1 | 0.00 | 0.00 | 0.00 | 53 | 1011.3 |
| 20260505152016 | 77 | 232 | 1.7 | 3.5 | 0.00 | 0.00 | 0.00 | 52 | 1011.4 |
| 20260505151504 | 76 | 260 | 0.9 | 3.5 | 0.00 | 0.00 | 0.00 | 53 | 1011.4 |
| 20260505151057 | 76 | 219 | 1.7 | 6.1 | 0.00 | 0.00 | 0.00 | 54 | 1011.3 |
| 20260505150541 | 75 | 200 | 1.7 | 7.0 | 0.00 | 0.00 | 0.00 | 53 | 1011.2 |
| 20260505140529 | 71 | 205 | 1.7 | 4.3 | 0.00 | 0.00 | 0.00 | 62 | 1012.0 |
| 20260505124511 | 63 | 187 | 0.9 | 5.2 | 0.00 | 0.00 | 0.00 | 74 | 1012.4 |
| 20260505124037 | 63 | 213 | 1.7 | 5.2 | 0.00 | 0.00 | 0.00 | 72 | 1012.3 |
| 20260505123600 | 63 | 178 | 2.6 | 5.2 | 0.00 | 0.00 | 0.00 | 73 | 1012.4 |
| 20260505123051 | 62 | 227 | 1.7 | 5.2 | 0.00 | 0.00 | 0.00 | 74 | 1012.4 |
| 20260505122505 | 62 | 201 | 1.7 | 5.2 | 0.00 | 0.00 | 0.00 | 75 | 1012.2 |
| 20260505122044 | 61 | 220 | 2.6 | 6.1 | 0.00 | 0.00 | 0.00 | 75 | 1012.2 |
| 20260505121605 | 61 | 138 | 2.6 | 6.1 | 0.00 | 0.00 | 0.00 | 75 | 1012.2 |
| 20260505121015 | 61 | 171 | 3.5 | 6.1 | 0.00 | 0.00 | 0.00 | 76 | 1012.1 |
| 20260505120535 | 60 | 200 | 1.7 | 6.1 | 0.00 | 0.00 | 0.00 | 78 | 1012.1 |
| 20260505120100 | 60 | 202 | 2.6 | 4.3 | 0.00 | 0.00 | 0.00 | 80 | 1012.1 |
| 20260505115529 | 59 | 189 | 1.7 | 4.3 | 0.00 | 0.00 | 0.00 | 81 | 1012.2 |
| 20260505115049 | 58 | 189 | 1.7 | 5.2 | 0.00 | 0.00 | 0.00 | 85 | 1012.2 |
| 20260505114616 | 57 | 198 | 1.7 | 3.5 | 0.00 | 0.00 | 0.00 | 88 | 1012.1 |
| 20260505114019 | 55 | 196 | 0.9 | 2.6 | 0.00 | 0.00 | 0.00 | 94 | 1012.1 |
| 20260505113603 | 54 | 248 | 0.0 | 1.7 | 0.00 | 0.00 | 0.00 | 97 | 1012.1 |
| 20260505113015 | 54 | 286 | 0.0 | 0.0 | 0.00 | 0.00 | 0.00 | 98 | 1012.1 |
| 20260505112549 | 53 | 286 | 0.0 | 0.0 | 0.00 | 0.00 | 0.00 | 98 | 1012.1 |
| 20260505112111 | 53 | 360 | 0.0 | 0.0 | 0.00 | 0.00 | 0.00 | 98 | 1012.0 |
| 20260505111556 | 52 | 286 | 0.0 | 0.0 | 0.00 | 0.00 | 0.00 | 97 | 1011.9 |
| 20260505111015 | 52 | 360 | 0.0 | 0.0 | 0.00 | 0.00 | 0.00 | 97 | 1012.0 |
| 20260505110533 | 51 | 360 | 0.0 | 0.0 | 0.00 | 0.00 | 0.00 | 96 | 1012.0 |
| 20260505102002 | 51 | 360 | 0.0 | 0.0 | 0.00 | 0.00 | 0.00 | 93 | 1011.8 |
| 20260505101546 | 51 | 252 | 0.0 | 0.0 | 0.00 | 0.00 | 0.00 | 93 | 1011.7 |
| 20260505101107 | 51 | 360 | 0.0 | 0.0 | 0.00 | 0.00 | 0.00 | 93 | 1011.7 |
| 20260505100517 | 52 | 360 | 0.0 | 0.9 | 0.00 | 0.00 | 0.00 | 92 | 1011.5 |
| 20260505100037 | 52 | 253 | 0.0 | 1.7 | 0.00 | 0.00 | 0.00 | 92 | 1011.6 |
| 20260505095007 | 53 | 360 | 0.0 | 0.0 | 0.00 | 0.00 | 0.00 | 90 | 1011.6 |
| 20260505094546 | 53 | 360 | 0.0 | 0.0 | 0.00 | 0.00 | 0.00 | 91 | 1011.6 |
| 20260505094029 | 54 | 196 | 0.0 | 0.0 | 0.00 | 0.00 | 0.00 | 90 | 1011.6 |
| 20260505093546 | 54 | 195 | 0.0 | 0.0 | 0.00 | 0.00 | 0.00 | 89 | 1011.6 |
| 20260505093019 | 54 | 360 | 0.0 | 0.0 | 0.00 | 0.00 | 0.00 | 88 | 1011.4 |
| 20260505092545 | 54 | 360 | 0.0 | 1.7 | 0.00 | 0.00 | 0.00 | 86 | 1011.4 |
| 20260505092014 | 54 | 196 | 0.9 | 1.7 | 0.00 | 0.00 | 0.00 | 84 | 1011.4 |
| 20260505091539 | 54 | 360 | 0.0 | 1.7 | 0.00 | 0.00 | 0.00 | 83 | 1011.4 |
| 20260505091006 | 55 | 360 | 0.0 | 0.0 | 0.00 | 0.00 | 0.00 | 83 | 1011.2 |
| 20260505090550 | 55 | 360 | 0.0 | 0.0 | 0.00 | 0.00 | 0.00 | 83 | 1011.2 |
| 20260505090030 | 55 | 257 | 0.0 | 0.0 | 0.00 | 0.00 | 0.00 | 82 | 1010.9 |
| 20260505085547 | 55 | 257 | 0.0 | 0.0 | 0.00 | 0.00 | 0.00 | 81 | 1011.0 |
| 20260505085018 | 55 | 257 | 0.0 | 1.7 | 0.00 | 0.00 | 0.00 | 80 | 1011.0 |
| 20260505084537 | 56 | 257 | 0.0 | 1.7 | 0.00 | 0.00 | 0.00 | 80 | 1011.0 |
| 20260505084059 | 56 | 221 | 0.0 | 0.9 | 0.00 | 0.00 | 0.00 | 80 | 1011.0 |
| 20260505083515 | 56 | 198 | 0.0 | 0.9 | 0.00 | 0.00 | 0.00 | 79 | 1010.9 |
| 20260505083044 | 57 | 360 | 0.0 | 1.7 | 0.00 | 0.00 | 0.00 | 79 | 1010.9 |
| 20260505082558 | 57 | 198 | 0.0 | 1.7 | 0.00 | 0.00 | 0.00 | 78 | 1011.0 |
| 20260505082019 | 57 | 360 | 0.0 | 1.7 | 0.00 | 0.00 | 0.00 | 78 | 1011.0 |
| 20260505081548 | 57 | 360 | 0.0 | 2.6 | 0.00 | 0.00 | 0.00 | 79 | 1011.0 |
| 20260505081021 | 57 | 360 | 0.9 | 2.6 | 0.00 | 0.00 | 0.00 | 79 | 1011.0 |
| 20260505080538 | 56 | 360 | 0.9 | 2.6 | 0.00 | 0.00 | 0.00 | 80 | 1011.0 |
| 20260505080104 | 56 | 360 | 1.7 | 2.6 | 0.00 | 0.00 | 0.00 | 79 | 1011.1 |
| 20260505075519 | 56 | 360 | 0.9 | 2.6 | 0.00 | 0.00 | 0.00 | 80 | 1011.0 |
| 20260505075106 | 56 | 198 | 0.9 | 2.6 | 0.00 | 0.00 | 0.00 | 81 | 1011.0 |
| 20260505074517 | 56 | 360 | 0.0 | 1.7 | 0.00 | 0.00 | 0.00 | 82 | 1011.0 |
| 20260505074038 | 56 | 360 | 0.9 | 1.7 | 0.00 | 0.00 | 0.00 | 82 | 1011.0 |
| 20260505073610 | 55 | 198 | 0.9 | 1.7 | 0.00 | 0.00 | 0.00 | 82 | 1011.0 |
| 20260505073021 | 56 | 360 | 0.9 | 1.7 | 0.00 | 0.00 | 0.00 | 82 | 1011.1 |
| 20260505072546 | 56 | 198 | 0.9 | 1.7 | 0.00 | 0.00 | 0.00 | 81 | 1011.0 |
| 20260505072015 | 56 | 198 | 0.9 | 1.7 | 0.00 | 0.00 | 0.00 | 80 | 1011.1 |
| 20260505071542 | 56 | 198 | 0.0 | 1.7 | 0.00 | 0.00 | 0.00 | 79 | 1011.1 |
| 20260505071109 | 56 | 198 | 0.9 | 2.6 | 0.00 | 0.00 | 0.00 | 78 | 1011.0 |
| 20260505070546 | 56 | 360 | 0.9 | 2.6 | 0.00 | 0.00 | 0.00 | 78 | 1011.1 |
| 20260505070033 | 56 | 204 | 0.9 | 2.6 | 0.00 | 0.00 | 0.00 | 79 | 1011.0 |
| 20260505065552 | 55 | 360 | 1.7 | 2.6 | 0.00 | 0.00 | 0.00 | 79 | 1011.0 |
| 20260505065048 | 54 | 360 | 0.0 | 1.7 | 0.00 | 0.00 | 0.00 | 79 | 1011.0 |
| 20260505064514 | 54 | 360 | 0.0 | 1.7 | 0.00 | 0.00 | 0.00 | 79 | 1011.0 |
| 20260505064049 | 54 | 360 | 0.0 | 1.7 | 0.00 | 0.00 | 0.00 | 79 | 1011.1 |
| 20260505063523 | 54 | 234 | 0.0 | 0.9 | 0.00 | 0.00 | 0.00 | 78 | 1011.0 |
| 20260505063001 | 55 | 360 | 0.0 | 0.9 | 0.00 | 0.00 | 0.00 | 77 | 1011.1 |
| 20260505062545 | 55 | 277 | 0.0 | 0.9 | 0.00 | 0.00 | 0.00 | 77 | 1011.1 |
| 20260505062020 | 55 | 275 | 0.0 | 0.9 | 0.00 | 0.00 | 0.00 | 75 | 1011.1 |
| 20260505061504 | 55 | 360 | 0.0 | 0.9 | 0.00 | 0.00 | 0.00 | 75 | 1011.2 |
| 20260505061045 | 56 | 360 | 0.0 | 0.9 | 0.00 | 0.00 | 0.00 | 74 | 1011.1 |
| 20260505060523 | 56 | 360 | 0.0 | 0.0 | 0.00 | 0.00 | 0.00 | 74 | 1011.1 |
| 20260505060104 | 56 | 277 | 0.0 | 0.9 | 0.00 | 0.00 | 0.00 | 73 | 1011.2 |
| 20260505055522 | 56 | 275 | 0.0 | 1.7 | 0.00 | 0.00 | 0.00 | 72 | 1011.1 |
| 20260505055056 | 57 | 360 | 0.0 | 1.7 | 0.00 | 0.00 | 0.00 | 71 | 1011.1 |
| 20260505054633 | 57 | 360 | 0.0 | 1.7 | 0.00 | 0.00 | 0.00 | 71 | 1011.1 |
| 20260505054038 | 57 | 252 | 0.0 | 1.7 | 0.00 | 0.00 | 0.00 | 70 | 1011.1 |
| 20260505053558 | 58 | 360 | 0.0 | 1.7 | 0.00 | 0.00 | 0.00 | 69 | 1011.0 |
| 20260505053032 | 58 | 232 | 0.0 | 2.6 | 0.00 | 0.00 | 0.00 | 68 | 1011.1 |
| 20260505052552 | 59 | 360 | 0.9 | 3.5 | 0.00 | 0.00 | 0.00 | 67 | 1011.0 |
| 20260505052048 | 59 | 202 | 0.9 | 3.5 | 0.00 | 0.00 | 0.00 | 66 | 1011.0 |
| 20260505051611 | 59 | 190 | 0.9 | 4.3 | 0.00 | 0.00 | 0.00 | 66 | 1011.0 |
| 20260505051059 | 59 | 175 | 0.9 | 4.3 | 0.00 | 0.00 | 0.00 | 66 | 1011.1 |
| 20260505050533 | 59 | 360 | 1.7 | 3.5 | 0.00 | 0.00 | 0.00 | 66 | 1011.2 |
| 20260505041530 | 57 | 194 | 1.7 | 2.6 | 0.00 | 0.00 | 0.00 | 68 | 1011.1 |
| 20260505041109 | 56 | 187 | 0.9 | 3.5 | 0.00 | 0.00 | 0.00 | 70 | 1011.2 |
| 20260505040520 | 55 | 360 | 0.9 | 2.6 | 0.00 | 0.00 | 0.00 | 73 | 1011.2 |
| 20260505040002 | 54 | 360 | 0.0 | 1.7 | 0.00 | 0.00 | 0.00 | 75 | 1011.1 |
| 20260505035534 | 53 | 186 | 0.0 | 0.9 | 0.00 | 0.00 | 0.00 | 77 | 1011.3 |
| 20260505035006 | 53 | 360 | 0.0 | 0.9 | 0.00 | 0.00 | 0.00 | 77 | 1011.1 |
| 20260505034525 | 54 | 360 | 0.0 | 0.0 | 0.00 | 0.00 | 0.00 | 77 | 1011.2 |
| 20260505034049 | 54 | 360 | 0.0 | 0.0 | 0.00 | 0.00 | 0.00 | 76 | 1011.2 |
| 20260505033524 | 54 | 186 | 0.0 | 0.0 | 0.00 | 0.00 | 0.00 | 74 | 1011.2 |
| 20260505033056 | 54 | 186 | 0.0 | 0.0 | 0.00 | 0.00 | 0.00 | 73 | 1011.3 |
| 20260505032547 | 54 | 186 | 0.0 | 0.0 | 0.00 | 0.00 | 0.00 | 72 | 1011.3 |
| 20260505032006 | 54 | 186 | 0.0 | 0.0 | 0.00 | 0.00 | 0.00 | 73 | 1011.4 |
| 20260505031527 | 54 | 186 | 0.0 | 0.0 | 0.00 | 0.00 | 0.00 | 74 | 1011.4 |
| 20260505031002 | 54 | 186 | 0.0 | 0.9 | 0.00 | 0.00 | 0.00 | 73 | 1011.5 |
| 20260505030530 | 54 | 360 | 0.0 | 0.9 | 0.00 | 0.00 | 0.00 | 73 | 1011.4 |
| 20260505030109 | 54 | 186 | 0.0 | 0.9 | 0.00 | 0.00 | 0.00 | 74 | 1011.4 |
| 20260505025517 | 54 | 186 | 0.0 | 0.9 | 0.00 | 0.00 | 0.00 | 74 | 1011.3 |
| 20260505025039 | 54 | 186 | 0.0 | 0.0 | 0.00 | 0.00 | 0.00 | 73 | 1011.4 |
| 20260505024608 | 54 | 186 | 0.0 | 0.0 | 0.00 | 0.00 | 0.00 | 74 | 1011.4 |
| 20260505024019 | 55 | 186 | 0.0 | 0.0 | 0.00 | 0.00 | 0.00 | 73 | 1011.6 |
| 20260505023550 | 55 | 186 | 0.0 | 0.0 | 0.00 | 0.00 | 0.00 | 72 | 1011.7 |
| 20260505023041 | 55 | 186 | 0.0 | 0.0 | 0.00 | 0.00 | 0.00 | 72 | 1011.6 |
| 20260505022606 | 55 | 186 | 0.0 | 0.0 | 0.00 | 0.00 | 0.00 | 71 | 1011.7 |
| 20260505022041 | 55 | 186 | 0.0 | 0.0 | 0.00 | 0.00 | 0.00 | 71 | 1011.7 |
| 20260505021519 | 56 | 186 | 0.0 | 0.0 | 0.00 | 0.00 | 0.00 | 70 | 1011.7 |
| 20260505021044 | 56 | 186 | 0.0 | 0.9 | 0.00 | 0.00 | 0.00 | 69 | 1011.7 |
| 20260505020506 | 56 | 186 | 0.0 | 0.9 | 0.00 | 0.00 | 0.00 | 70 | 1011.7 |
| 20260505020025 | 56 | 186 | 0.0 | 0.9 | 0.00 | 0.00 | 0.00 | 70 | 1011.7 |
| 20260505015550 | 56 | 186 | 0.0 | 0.0 | 0.00 | 0.00 | 0.00 | 69 | 1011.7 |
| 20260505015030 | 56 | 186 | 0.0 | 0.0 | 0.00 | 0.00 | 0.00 | 68 | 1011.6 |
| 20260505014512 | 57 | 186 | 0.0 | 0.0 | 0.00 | 0.00 | 0.00 | 67 | 1011.6 |
| 20260505014048 | 57 | 360 | 0.0 | 0.0 | 0.00 | 0.00 | 0.00 | 66 | 1011.6 |
| 20260505013539 | 58 | 360 | 0.0 | 0.9 | 0.00 | 0.00 | 0.00 | 65 | 1011.6 |
| 20260505013031 | 58 | 360 | 0.0 | 0.9 | 0.00 | 0.00 | 0.00 | 64 | 1011.5 |
| 20260505012502 | 58 | 360 | 0.0 | 0.0 | 0.00 | 0.00 | 0.00 | 64 | 1011.4 |
| 20260505012053 | 59 | 360 | 0.0 | 0.0 | 0.00 | 0.00 | 0.00 | 63 | 1011.3 |
| 20260505011521 | 59 | 360 | 0.0 | 0.0 | 0.00 | 0.00 | 0.00 | 62 | 1011.2 |
| 20260505011058 | 60 | 360 | 0.0 | 0.0 | 0.00 | 0.00 | 0.00 | 61 | 1011.2 |
| 20260505010525 | 60 | 186 | 0.0 | 0.0 | 0.00 | 0.00 | 0.00 | 59 | 1011.1 |
| 20260505010002 | 60 | 186 | 0.0 | 0.0 | 0.00 | 0.00 | 0.00 | 59 | 1011.1 |
| 20260505005526 | 61 | 186 | 0.0 | 0.9 | 0.00 | 0.00 | 0.00 | 58 | 1011.1 |
| 20260505005049 | 61 | 186 | 0.0 | 0.9 | 0.00 | 0.00 | 0.00 | 58 | 1011.1 |
| 20260505004524 | 62 | 186 | 0.0 | 0.9 | 0.00 | 0.00 | 0.00 | 57 | 1011.1 |
| 20260505004003 | 63 | 186 | 0.0 | 0.9 | 0.00 | 0.00 | 0.00 | 55 | 1010.9 |
| 20260505003547 | 63 | 186 | 0.0 | 0.9 | 0.00 | 0.00 | 0.00 | 54 | 1010.9 |
| 20260505003001 | 64 | 186 | 0.0 | 1.7 | 0.00 | 0.00 | 0.00 | 54 | 1010.9 |
| 20260505002527 | 64 | 186 | 0.0 | 2.6 | 0.00 | 0.00 | 0.00 | 53 | 1010.9 |
| 20260505002044 | 65 | 186 | 0.9 | 2.6 | 0.00 | 0.00 | 0.00 | 51 | 1010.8 |
| 20260505001518 | 65 | 194 | 0.9 | 2.6 | 0.00 | 0.00 | 0.00 | 51 | 1010.7 |
| 20260505001103 | 65 | 192 | 0.9 | 2.6 | 0.00 | 0.00 | 0.00 | 50 | 1010.7 |
| 20260505000537 | 65 | 201 | 0.9 | 3.5 | 0.00 | 0.00 | 0.00 | 49 | 1010.7 |
| 20260505000028 | 66 | 188 | 1.7 | 5.2 | 0.00 | 0.00 | 0.00 | 49 | 1010.7 |
| 20260504235601 | 66 | 203 | 1.7 | 5.2 | 0.00 | 0.00 | 0.00 | 49 | 1010.7 |
| 20260504235030 | 66 | 200 | 1.7 | 4.3 | 0.00 | 0.00 | 0.00 | 48 | 1010.7 |
| 20260504234520 | 66 | 200 | 0.9 | 3.5 | 0.00 | 0.00 | 0.00 | 49 | 1010.6 |
| 20260504234001 | 66 | 195 | 1.7 | 7.0 | 0.00 | 0.00 | 0.00 | 47 | 1010.5 |
| 20260504233522 | 66 | 201 | 2.6 | 7.0 | 0.00 | 0.00 | 0.00 | 47 | 1010.5 |
| 20260504233105 | 67 | 207 | 0.9 | 3.5 | 0.00 | 0.00 | 0.00 | 47 | 1010.5 |
| 20260504232536 | 67 | 194 | 1.7 | 4.3 | 0.00 | 0.00 | 0.00 | 48 | 1010.5 |
| 20260504232056 | 67 | 192 | 1.7 | 6.1 | 0.00 | 0.00 | 0.00 | 47 | 1010.5 |
| 20260504231521 | 67 | 196 | 2.6 | 6.1 | 0.00 | 0.00 | 0.00 | 46 | 1010.4 |
| 20260504231040 | 68 | 204 | 2.6 | 5.2 | 0.00 | 0.00 | 0.00 | 46 | 1010.4 |
| 20260504230505 | 68 | 188 | 3.5 | 7.0 | 0.00 | 0.00 | 0.00 | 46 | 1010.3 |
| 20260504230101 | 68 | 200 | 4.3 | 7.0 | 0.00 | 0.00 | 0.00 | 46 | 1010.4 |
| 20260504225540 | 68 | 223 | 1.7 | 7.0 | 0.00 | 0.00 | 0.00 | 46 | 1010.5 |
| 20260504225059 | 68 | 197 | 4.3 | 7.0 | 0.00 | 0.00 | 0.00 | 46 | 1010.5 |
| 20260504224528 | 68 | 212 | 3.5 | 6.1 | 0.00 | 0.00 | 0.00 | 46 | 1010.4 |
| 20260504224056 | 68 | 209 | 2.6 | 7.0 | 0.00 | 0.00 | 0.00 | 46 | 1010.4 |
| 20260504223523 | 68 | 179 | 2.6 | 7.0 | 0.00 | 0.00 | 0.00 | 46 | 1010.5 |
| 20260504223050 | 68 | 196 | 2.6 | 5.2 | 0.00 | 0.00 | 0.00 | 46 | 1010.4 |
| 20260504222519 | 68 | 214 | 3.5 | 7.8 | 0.00 | 0.00 | 0.00 | 45 | 1010.5 |
| 20260504222055 | 69 | 202 | 2.6 | 7.8 | 0.00 | 0.00 | 0.00 | 47 | 1010.6 |
| 20260504221506 | 69 | 150 | 3.5 | 6.1 | 0.00 | 0.00 | 0.00 | 46 | 1010.5 |
| 20260504221025 | 69 | 188 | 2.6 | 7.8 | 0.00 | 0.00 | 0.00 | 46 | 1010.5 |
| 20260504220601 | 69 | 190 | 5.2 | 7.8 | 0.00 | 0.00 | 0.00 | 46 | 1010.6 |
| 20260504220036 | 69 | 196 | 3.5 | 7.8 | 0.00 | 0.00 | 0.00 | 46 | 1010.6 |
| 20260504215518 | 69 | 201 | 3.5 | 7.8 | 0.00 | 0.00 | 0.00 | 45 | 1010.6 |
| 20260504215101 | 69 | 178 | 4.3 | 7.8 | 0.00 | 0.00 | 0.00 | 45 | 1010.7 |